Regional Weather Roundup
Issued by NWS

Home | Current Version | Previous Version | Text Only | Print | Product List | Glossary On
Versions: 1 2 3 4 5 6 7 8 9 10 11 12 13 14 15 16 17 18 19 20 21 22 23 24 25 26 27 28 29 30 31 32 33 34 35 36 37 38 39 40 41 42 43 44 45 46 47 48 49 50
000
ASUS42 KFFC 302103
RWRGA
WEATHER ROUNDUP FOR GEORGIA
NATIONAL WEATHER SERVICE PEACHTREE CITY GA
400 PM EST FRI JAN 30 2015

NOTE: "FAIR" INDICATES FEW OR NO CLOUDS BELOW 12,000 FEET WITH NO
SIGNIFICANT WEATHER AND/OR OBSTRUCTIONS TO VISIBILITY.

* = USE WITH CAUTION. THE STATIONS MARKED WITH AN ASTERISK MAY NOT
REPORT WEATHER SUCH AS PRECIPITATION, FOG, OR THUNDER AND ARE NOT
QUALITY CONTROLLED BY NWS.

THE REMARK "TC" DENOTES TEMPERATURE READING IN DEGREES CELSIUS.

GAZ001>058-302200-
NORTH GEORGIA

CITY           SKY/WX    TMP DP  RH WIND       PRES   REMARKS
ATLANTA        MOSUNNY   50  20  30 NW17G24   30.27R
ATHENS         SUNNY     53  17  24 NW13G21   30.21S
CHAMBLEE       SUNNY     48  22  35 NW14      30.26S
PEACHTREE CITY SUNNY     51  20  29 NW13      30.28R
ROME           SUNNY     49  21  33 N13G20    30.32S
WEST ATLANTA   SUNNY     49  19  30 NW12G22   30.28R
GAINESVILLE    SUNNY     49  15  25 N9G23     30.23S
CARTERSVILLE   SUNNY     47  20  34 N10G20    30.32R


CITY           SKY/WX    TMP DP  RH WIND       PRES   REMARKS
DALTON*        SUNNY     45  25  45 N13G20    30.33S
LAWRENCEVILLE* SUNNY     50  18  27 SW12      30.23R
MARIETTA       MOSUNNY   48  21  35 NW17G28   30.28R
KENNESAW*      SUNNY     46  19  34 NW18G26   30.29S
$$

GAZ059>098-102>109-302200-
CENTRAL GEORGIA

CITY           SKY/WX    TMP DP  RH WIND       PRES   REMARKS
AUGUSTA-BUSH   SUNNY     56  22  26 NW14      30.19R
AUGUSTA-DANIEL SUNNY     56  22  26 NW8G18    30.19R
COLUMBUS       SUNNY     56  21  25 N8G18     30.27S
MACON          SUNNY     55  22  27 NW14G20   30.23S
ROBINS AFB     SUNNY     57  23  26 NW14      30.23S


CITY           SKY/WX    TMP DP  RH WIND       PRES   REMARKS
LAGRANGE*      SUNNY     57  27  32 N7        30.28S
SYLVANIA*      SUNNY     58  31  36 NW12      30.18R
MILLEDGEVILLE* SUNNY     55  30  38 W8        30.22S
$$

GAZ099>101-110>166-302200-
SOUTH GEORGIA

CITY           SKY/WX    TMP DP  RH WIND       PRES   REMARKS
SAVANNAH       SUNNY     60  27  28 N16       30.16R
VALDOSTA       MOSUNNY   60  29  30 VRB5      30.20F
ALMA           SUNNY     60  26  27 NW15      30.19R
ST SIMONS      SUNNY     62  29  28 NW10      30.15R
FT STEWART     SUNNY     61  27  27 N15       30.15R
ALBANY         SUNNY     60  26  27 NW10G17   30.25F
HUNTER AFB     SUNNY     60  30  31 NW15      30.14R
MOODY AFB      SUNNY     60  29  32 N14       30.20S
BRUNSWICK      SUNNY     63  28  27 NW10      30.16S


CITY           SKY/WX    TMP DP  RH WIND       PRES   REMARKS
BAINBRIDGE*    SUNNY     63  34  34 N10       30.25S
MOULTRIE*      SUNNY     59  32  36 N9        30.23S
VIDALIA*       SUNNY     59  30  33 N15G23    30.19S
WAYCROSS*      SUNNY     64  32  30 NW10      30.18S
DOUGLAS*       SUNNY     61  28  29 NW13      30.22R
$$


USA.gov is the U.S. government's official web portal to all federal, state and local government web resources and services.